FW5619 Weather Reports


Display with metric or nautical units.
time (UTC)temp
F
wind
direction
speed
MPH
gust
MPH
rain 1hr
in
rain 24hr
in
rain mn
in
humidity
%
barometer
mb
20260505215031 59 249 30.0 40.0 0.00 0.00 0.00 82 1010.7
20260505214530 59 199 26.0 43.0 0.00 0.00 0.00 83 1010.5
20260505214030 59 188 28.0 43.0 0.00 0.00 0.00 82 1010.5
20260505213530 59 198 26.0 42.0 0.00 0.00 0.00 82 1010.4
20260505213048 59 208 26.0 42.0 0.00 0.00 0.00 82 1010.3
20260505212533 59 185 27.0 39.0 0.00 0.00 0.00 82 1010.2
20260505212030 59 219 28.0 40.0 0.00 0.00 0.00 82 1010.1
20260505211530 59 197 28.0 40.0 0.00 0.00 0.00 82 1010.1
20260505211031 59 195 27.0 38.0 0.00 0.00 0.00 82 1010.1
20260505210533 59 189 29.0 41.0 0.00 0.00 0.00 82 1010.1
20260505210030 59 186 26.0 42.0 0.00 0.00 0.00 83 1010.3
20260505205529 59 204 28.0 42.0 0.00 0.00 0.00 83 1010.3
20260505205027 59 201 28.0 39.0 0.00 0.00 0.00 83 1010.1
20260505204528 59 194 26.0 38.0 0.00 0.00 0.00 83 1010.2
20260505204032 59 174 25.0 38.0 0.00 0.00 0.00 83 1010.2
20260505203528 59 187 23.0 38.0 0.00 0.00 0.00 83 1010.1
20260505203041 59 198 24.0 42.0 0.00 0.00 0.00 83 1010.1
20260505202527 59 229 25.0 39.0 0.00 0.00 0.00 83 1010.2
20260505202027 59 217 23.0 39.0 0.00 0.00 0.00 83 1010.2
20260505201527 59 208 24.0 41.0 0.00 0.00 0.00 83 1010.3
20260505201025 59 182 23.0 41.0 0.00 0.00 0.00 83 1010.3
20260505200527 59 185 23.0 36.0 0.00 0.00 0.00 83 1010.4
20260505200033 59 221 22.0 38.0 0.00 0.00 0.00 82 1010.5
20260505195626 60 226 18.0 38.0 0.00 0.00 0.00 82 1010.4
20260505195023 60 209 24.0 37.0 0.00 0.00 0.00 82 1010.5
20260505194522 60 202 27.0 37.0 0.00 0.00 0.00 82 1010.6
20260505194022 60 192 22.0 32.0 0.00 0.00 0.00 82 1010.7
20260505193522 60 223 22.0 37.0 0.00 0.00 0.00 82 1010.7
20260505193022 60 194 21.0 31.0 0.00 0.00 0.00 82 1010.9
20260505192524 59 213 20.0 33.0 0.00 0.00 0.00 83 1011.0
20260505192020 59 217 22.0 32.0 0.00 0.00 0.00 83 1011.0
20260505191520 59 193 23.0 32.0 0.00 0.00 0.00 82 1011.1
20260505191021 59 213 21.0 33.0 0.00 0.00 0.00 83 1011.2
20260505190522 59 202 23.0 36.0 0.00 0.00 0.00 83 1011.2
20260505190017 59 193 23.0 34.0 0.00 0.00 0.00 83 1011.4
20260505185520 59 198 22.0 33.0 0.00 0.00 0.00 83 1011.5
20260505185015 59 198 19.0 31.0 0.00 0.00 0.00 84 1011.5
20260505184522 59 195 20.0 32.0 0.00 0.00 0.00 84 1011.7
20260505184015 59 208 21.0 31.0 0.00 0.00 0.00 84 1011.7
20260505183514 59 195 21.0 32.0 0.00 0.00 0.00 83 1011.8
20260505183014 59 192 21.0 32.0 0.00 0.00 0.00 83 1011.8
20260505182514 59 208 22.0 30.0 0.00 0.00 0.00 84 1011.8
20260505182013 59 175 21.0 30.0 0.00 0.00 0.00 84 1011.9
20260505181512 59 192 21.0 30.0 0.00 0.00 0.00 83 1012.0
20260505181013 59 180 16.0 29.0 0.00 0.00 0.00 83 1012.0
20260505180518 59 207 19.0 30.0 0.00 0.00 0.00 83 1012.1
20260505180011 59 201 16.0 25.0 0.00 0.00 0.00 83 1012.1
20260505175510 59 205 16.0 26.0 0.00 0.00 0.00 83 1012.1
20260505175010 59 174 13.0 22.0 0.00 0.00 0.00 83 1012.3
20260505174514 60 200 14.0 21.0 0.00 0.00 0.00 82 1012.4
20260505174010 60 197 11.0 19.0 0.00 0.00 0.00 81 1012.4
20260505173514 61 184 6.0 13.0 0.00 0.00 0.00 81 1012.4
20260505173027 60 211 8.0 18.0 0.00 0.00 0.00 82 1012.5
20260505172509 60 219 8.0 17.0 0.00 0.00 0.00 82 1012.5
20260505172009 60 252 10.0 17.0 0.00 0.00 0.00 82 1012.6
20260505171509 60 252 9.0 15.0 0.00 0.00 0.00 81 1012.7
20260505171010 60 203 5.0 20.0 0.00 0.00 0.00 84 1012.7
20260505170509 59 213 10.0 20.0 0.00 0.00 0.00 83 1012.6
20260505170013 59 209 9.0 17.0 0.00 0.00 0.00 83 1012.7
20260505165508 59 187 11.0 21.0 0.00 0.00 0.00 84 1012.7
20260505165008 59 225 11.0 19.0 0.00 0.00 0.00 83 1012.7
20260505164520 59 263 12.0 19.0 0.00 0.00 0.00 83 1012.8
20260505164007 59 236 11.0 19.0 0.00 0.00 0.00 83 1012.9
20260505163508 59 200 12.0 19.0 0.00 0.00 0.00 83 1012.9
20260505163012 60 192 10.0 16.0 0.00 0.00 0.00 83 1012.8
20260505162507 60 204 9.0 13.0 0.00 0.00 0.00 83 1012.8
20260505162006 60 182 6.0 16.0 0.00 0.00 0.00 82 1013.0
20260505161507 59 231 8.0 24.0 0.00 0.00 0.00 84 1013.0
20260505161009 58 215 17.0 23.0 0.00 0.00 0.00 84 1013.1
20260505160506 59 196 13.0 19.0 0.00 0.00 0.00 83 1013.2
20260505153009 60 192 9.0 17.0 0.00 0.00 0.00 83 1013.4
20260505152501 60 199 4.0 12.0 0.00 0.00 0.00 84 1013.3
20260505152003 58 240 7.0 15.0 0.00 0.00 0.00 86 1013.4
20260505151501 58 207 10.0 15.0 0.00 0.00 0.00 86 1013.5
20260505151001 58 213 8.0 18.0 0.00 0.00 0.00 86 1013.6
20260505150501 58 209 13.0 18.0 0.00 0.00 0.00 86 1013.6
20260505140555 57 193 12.0 19.0 0.00 0.00 0.00 86 1013.5
20260505140105 58 205 14.0 19.0 0.00 0.00 0.00 86 1013.4
20260505124550 57 204 9.0 14.0 0.00 0.00 0.00 88 1013.1
20260505124050 57 218 7.0 12.0 0.00 0.00 0.00 88 1013.1
20260505123550 57 221 8.0 12.0 0.00 0.00 0.00 88 1013.0
20260505123049 57 227 5.0 10.0 0.00 0.00 0.00 89 1013.1
20260505122552 56 225 5.0 10.0 0.00 0.00 0.00 90 1013.1
20260505122048 56 228 5.0 10.0 0.00 0.00 0.00 90 1013.1
20260505121548 56 231 4.0 9.0 0.00 0.00 0.00 90 1013.0
20260505121048 56 231 5.0 9.0 0.00 0.00 0.00 90 1013.0
20260505120549 56 231 1.0 3.0 0.00 0.00 0.00 90 1013.1
20260505120048 56 231 0.0 4.0 0.00 0.00 0.00 90 1013.1
20260505115551 56 231 1.0 4.0 0.00 0.00 0.00 91 1013.2
20260505115046 56 231 0.0 4.0 0.00 0.00 0.00 91 1013.2
20260505114546 56 231 0.0 7.0 0.00 0.00 0.00 92 1013.3
20260505114045 55 231 4.0 7.0 0.00 0.00 0.00 92 1013.3
20260505113545 55 231 1.0 6.0 0.00 0.00 0.00 92 1013.2
20260505113044 55 231 3.0 6.0 0.00 0.00 0.00 92 1013.3
20260505112543 55 231 2.0 6.0 0.00 0.00 0.00 93 1013.1
20260505112042 55 231 3.0 9.0 0.00 0.00 0.00 93 1013.2
20260505111552 54 231 4.0 10.0 0.00 0.00 0.00 93 1013.2
20260505111042 54 231 7.0 10.0 0.00 0.00 0.00 93 1013.2
20260505110542 54 232 3.0 7.0 0.00 0.00 0.00 93 1013.2
20260505102039 53 225 2.0 8.0 0.00 0.00 0.00 94 1012.4
20260505101538 53 224 5.0 10.0 0.00 0.00 0.00 94 1012.4
20260505101042 53 224 3.0 11.0 0.00 0.00 0.00 94 1012.4
20260505100542 53 225 6.0 11.0 0.00 0.00 0.00 94 1012.4
20260505100048 53 233 8.0 10.0 0.00 0.00 0.00 94 1012.3
20260505095541 53 360 5.0 11.0 0.00 0.00 0.00 94 1012.3
20260505095036 53 360 5.0 11.0 0.00 0.00 0.00 94 1012.3
20260505094536 53 360 5.0 9.0 0.00 0.00 0.00 94 1012.3
20260505094036 53 360 4.0 9.0 0.00 0.00 0.00 93 1012.2
20260505093535 53 360 4.0 9.0 0.00 0.00 0.00 94 1012.2
20260505093035 53 234 3.0 8.0 0.00 0.00 0.00 93 1012.3
20260505092535 53 360 3.0 6.0 0.00 0.00 0.00 94 1012.3
20260505092034 53 234 2.0 8.0 0.00 0.00 0.00 93 1012.3
20260505091550 53 360 4.0 8.0 0.00 0.00 0.00 93 1012.3
20260505091037 53 360 3.0 8.0 0.00 0.00 0.00 93 1012.3
20260505090533 53 236 3.0 8.0 0.00 0.00 0.00 93 1012.3
20260505090050 53 236 3.0 9.0 0.00 0.00 0.00 93 1012.4
20260505085534 53 234 3.0 9.0 0.00 0.00 0.00 93 1012.3
20260505085033 53 360 4.0 9.0 0.00 0.00 0.00 93 1012.3
20260505084537 53 360 3.0 8.0 0.00 0.00 0.00 93 1012.3
20260505084032 53 360 3.0 9.0 0.00 0.00 0.00 93 1012.2
20260505083531 53 360 3.0 9.0 0.00 0.00 0.00 93 1012.3
20260505083040 53 251 3.0 9.0 0.00 0.00 0.00 93 1012.3
20260505082530 53 228 4.0 9.0 0.00 0.00 0.00 93 1012.4
20260505082032 53 229 3.0 10.0 0.00 0.00 0.00 92 1012.5
20260505081548 53 212 5.0 13.0 0.00 0.00 0.00 92 1012.5
20260505081031 53 217 8.0 13.0 0.00 0.00 0.00 92 1012.4
20260505080534 53 207 8.0 13.0 0.00 0.00 0.00 92 1012.5
20260505080038 53 192 4.0 10.0 0.00 0.00 0.00 92 1012.5
20260505075529 53 221 7.0 12.0 0.00 0.00 0.00 92 1012.5
20260505075028 53 190 7.0 14.0 0.00 0.00 0.00 92 1012.5
20260505074528 53 199 9.0 14.0 0.00 0.00 0.00 92 1012.4
20260505074028 53 201 7.0 11.0 0.00 0.00 0.00 92 1012.4
20260505073531 53 199 4.0 9.0 0.00 0.00 0.00 92 1012.3
20260505073028 53 228 4.0 10.0 0.00 0.00 0.00 92 1012.3
20260505072527 53 237 5.0 10.0 0.00 0.00 0.00 92 1012.3
20260505072027 53 197 7.0 10.0 0.00 0.00 0.00 92 1012.3
20260505071530 53 236 5.0 9.0 0.00 0.00 0.00 92 1012.4
20260505071027 53 225 5.0 9.0 0.00 0.00 0.00 91 1012.5
20260505070526 54 242 4.0 9.0 0.00 0.00 0.00 92 1012.4
20260505070028 54 227 4.0 11.0 0.00 0.00 0.00 91 1012.4
20260505065525 54 245 6.0 11.0 0.00 0.00 0.00 91 1012.5
20260505065025 54 243 5.0 12.0 0.00 0.00 0.00 91 1012.5
20260505064525 54 231 6.0 13.0 0.00 0.00 0.00 91 1012.8
20260505064028 54 220 5.0 14.0 0.00 0.00 0.00 91 1012.5
20260505063524 54 239 5.0 11.0 0.00 0.00 0.00 91 1012.5
20260505063033 54 239 5.0 11.0 0.00 0.00 0.00 91 1012.6
20260505062525 54 240 4.0 9.0 0.00 0.00 0.00 91 1012.6
20260505062024 54 360 6.0 11.0 0.00 0.00 0.00 91 1012.6
20260505061530 54 360 5.0 11.0 0.00 0.00 0.00 91 1012.7
20260505061021 54 360 4.0 9.0 0.00 0.00 0.00 91 1012.6
20260505060521 54 360 4.0 10.0 0.00 0.00 0.00 91 1012.7
20260505060024 54 360 5.0 11.0 0.00 0.00 0.00 91 1012.8
20260505055521 54 360 7.0 11.0 0.00 0.00 0.00 91 1012.8
20260505055020 54 248 6.0 12.0 0.00 0.00 0.00 91 1012.9
20260505054523 54 241 6.0 12.0 0.00 0.00 0.00 91 1012.9
20260505054018 54 233 5.0 11.0 0.00 0.00 0.00 91 1012.9
20260505053518 54 215 7.0 11.0 0.00 0.00 0.00 91 1012.9
20260505053018 54 221 7.0 11.0 0.00 0.00 0.00 91 1012.9
20260505052517 54 240 6.0 11.0 0.00 0.00 0.00 91 1013.1
20260505052017 54 249 6.0 11.0 0.00 0.00 0.00 91 1013.0
20260505051517 54 231 6.0 10.0 0.00 0.00 0.00 90 1013.0
20260505051017 54 255 5.0 10.0 0.00 0.00 0.00 90 1013.0
20260505050516 54 235 5.0 13.0 0.00 0.00 0.00 90 1013.1
20260505041507 54 208 9.0 15.0 0.00 0.00 0.00 89 1013.2
20260505041007 54 207 9.0 15.0 0.00 0.00 0.00 89 1013.2
20260505040506 54 205 9.0 16.0 0.00 0.00 0.00 88 1013.2
20260505040005 54 191 10.0 17.0 0.00 0.00 0.00 88 1013.1
20260505035505 54 207 11.0 17.0 0.00 0.00 0.00 88 1013.2
20260505035004 55 193 10.0 16.0 0.00 0.00 0.00 88 1013.3
20260505034504 55 194 7.0 14.0 0.00 0.00 0.00 88 1013.3
20260505034004 55 223 8.0 15.0 0.00 0.00 0.00 88 1013.1
20260505033506 55 200 6.0 11.0 0.00 0.00 0.00 88 1013.1
20260505033004 55 254 4.0 11.0 0.00 0.00 0.00 88 1013.3
20260505032504 55 241 6.0 11.0 0.00 0.00 0.00 88 1013.2
20260505032003 55 248 7.0 13.0 0.00 0.00 0.00 88 1013.2
20260505031503 55 237 6.0 13.0 0.00 0.00 0.00 87 1013.4
20260505031003 55 196 5.0 10.0 0.00 0.00 0.00 88 1013.4
20260505030503 55 200 5.0 11.0 0.00 0.00 0.00 87 1013.5
20260505030003 55 218 5.0 11.0 0.00 0.00 0.00 87 1013.4
20260505025502 55 246 6.0 14.0 0.00 0.00 0.00 87 1013.6
20260505025000 55 254 8.0 14.0 0.00 0.00 0.00 87 1013.6
20260505024504 55 230 8.0 14.0 0.00 0.00 0.00 87 1013.3
20260505024000 55 281 8.0 14.0 0.00 0.00 0.00 87 1013.4
20260505023500 55 201 8.0 13.0 0.00 0.00 0.00 87 1013.3
20260505023000 55 211 7.0 13.0 0.00 0.00 0.00 88 1013.4
20260505022602 55 232 7.0 14.0 0.00 0.00 0.00 88 1013.4
20260505022100 55 229 7.0 13.0 0.00 0.00 0.00 88 1013.4
20260505021613 54 219 5.0 13.0 0.00 0.00 0.00 88 1013.4
20260505021506 54 226 6.0 13.0 0.00 0.00 0.00 88 1013.5
20260505021100 54 254 6.0 12.0 0.00 0.00 0.00 88 1013.4
20260505020559 54 248 5.0 11.0 0.00 0.00 0.00 87 1013.4
20260505020101 54 252 6.0 11.0 0.00 0.00 0.00 87 1013.4
20260505015559 54 171 6.0 14.0 0.00 0.00 0.00 87 1013.5
20260505015058 55 176 7.0 15.0 0.00 0.00 0.00 87 1013.5
20260505014559 55 218 9.0 15.0 0.00 0.00 0.00 87 1013.4
20260505014057 55 236 7.0 15.0 0.00 0.00 0.00 87 1013.5
20260505013600 55 234 9.0 18.0 0.00 0.00 0.00 87 1013.3
20260505013058 55 218 10.0 18.0 0.00 0.00 0.00 87 1013.3
20260505012556 55 237 8.0 17.0 0.00 0.00 0.00 86 1013.3
20260505012100 55 274 10.0 17.0 0.00 0.00 0.00 86 1013.2
20260505011558 55 262 10.0 17.0 0.00 0.00 0.00 86 1013.1
20260505011055 55 220 9.0 17.0 0.00 0.00 0.00 86 1013.1
20260505010556 55 256 11.0 17.0 0.00 0.00 0.00 86 1012.9
20260505010056 55 232 8.0 16.0 0.00 0.00 0.00 86 1012.8
20260505005556 55 210 8.0 18.0 0.00 0.00 0.00 86 1012.8
20260505005055 55 245 9.0 21.0 0.00 0.00 0.00 86 1012.7
20260505004557 55 271 12.0 25.0 0.00 0.00 0.00 86 1012.6
20260505004055 54 220 15.0 28.0 0.00 0.00 0.00 86 1012.5
20260505003554 55 194 19.0 28.0 0.00 0.00 0.00 86 1012.2
20260505003054 55 198 19.0 24.0 0.00 0.00 0.00 86 1012.2
20260505002554 55 200 18.0 26.0 0.00 0.00 0.00 85 1012.0
20260505002055 55 202 20.0 27.0 0.00 0.00 0.00 85 1011.9
20260505001554 55 203 19.0 26.0 0.00 0.00 0.00 85 1011.9
20260505001053 55 200 18.0 26.0 0.00 0.00 0.00 85 1011.8
20260505000553 54 185 19.0 26.0 0.00 0.00 0.00 85 1011.9
20260505000056 54 200 18.0 28.0 0.00 0.00 0.00 85 1011.9
20260504235552 54 205 20.0 28.0 0.00 0.00 0.00 85 1011.8
20260504235055 54 211 19.0 26.0 0.00 0.00 0.00 85 1011.7
20260504234552 54 215 19.0 28.0 0.00 0.00 0.00 85 1011.7
20260504234052 55 215 19.0 28.0 0.00 0.00 0.00 85 1011.7
20260504233552 55 186 20.0 30.0 0.00 0.00 0.00 85 1011.6
20260504233059 55 210 20.0 30.0 0.00 0.00 0.00 85 1011.5
20260504232552 55 201 19.0 31.0 0.00 0.00 0.00 85 1011.4
20260504232050 55 192 18.0 30.0 0.00 0.00 0.00 85 1011.5
20260504231551 55 234 18.0 29.0 0.00 0.00 0.00 85 1011.5
20260504231051 55 180 19.0 29.0 0.00 0.00 0.00 85 1011.6
20260504230551 55 217 19.0 27.0 0.00 0.00 0.00 85 1011.5
20260504230050 55 200 17.0 28.0 0.00 0.00 0.00 85 1011.5
20260504225550 55 214 19.0 28.0 0.00 0.00 0.00 85 1011.4
20260504225049 55 217 16.0 25.0 0.00 0.00 0.00 85 1011.4
20260504224549 55 203 16.0 24.0 0.00 0.00 0.00 85 1011.5
20260504224050 55 198 14.0 23.0 0.00 0.00 0.00 85 1011.5
20260504223549 55 199 15.0 26.0 0.00 0.00 0.00 84 1011.5
20260504223054 55 202 14.0 30.0 0.00 0.00 0.00 85 1011.6
20260504222547 55 200 20.0 30.0 0.00 0.00 0.00 84 1011.7
20260504222052 55 191 17.0 25.0 0.00 0.00 0.00 84 1011.7
20260504221551 55 184 13.0 25.0 0.00 0.00 0.00 84 1011.8
20260504221046 55 222 15.0 22.0 0.00 0.00 0.00 84 1011.9
20260504220546 55 214 15.0 24.0 0.00 0.00 0.00 84 1011.8
20260504220104 55 186 16.0 27.0 0.00 0.00 0.00 84 1012.0
20260504215546 55 169 14.0 29.0 0.00 0.00 0.00 83 1012.0